sat.trackr.live / text

‹ back to catalog

STARLINK-31909

NORAD 59663 · 2024-084K

PAYLOAD ACTIVE UNKNOWN

§ Identity

Operator
Country
US
Launch date
2024-05-06
Launch site
AFETR
Launch vehicle
Mass (kg)
RCS (m²)

Purposes: comms

External: N2YO · Heavens-Above · Gunter

§ Orbital elements

Epoch: 2026-05-24T21:39:49.665888Z

Period
94.27 min
Inclination
43.0038°
Eccentricity
0.0001316
Mean motion
15.27574774 rev/d
Perigee alt
482.2 km
Apogee alt
484.0 km
Semi-major
6,861.2 km
B*
2.5576e-5
RAAN
331.0241°
Arg perigee
268.2109°
Mean anomaly
91.8592°
Rev number
11,603

§ Raw data

STARLINK-319091 59663U 24084K   26144.90265817  .00000442  00000+0  25576-4 0  99902 59663  43.0038 331.0241 0001316 268.2109  91.8592 15.27574774116036

JSON: /api/v1/satellites/59663 · /tle

For live sub-satellite position, see the globe view (requires WebGL).

§ Visibility from observer

Set your observer location to see the next 7 days of passes ≥ 10°. The values pass through the URL so the page stays shareable.

No JS? Fill the form by hand. The geolocation button needs JavaScript.